Cosmos 2369 - Orbit

View from above orbital plane
View from above orbital plane
View from above satellite
View from above satellite

Ground track
Ground track

The orbit data is extracted from the following two-line orbital elements,

1 26069U 00006A   13144.81034679  .00000061  00000-0  58220-4 0  9785
2 26069 070.9933 228.2244 0012182 311.0491 179.6902 14.13151402686403
Epoch (UTC): 24 May 2013 19:26:53
Eccentricity: 0.0012182
inclination: 70.9933°
perigee height: 840 km
apogee height: 857 km
right ascension of ascending node: 228.2244°
argument of perigee: 311.0491°
revolutions per day: 14.13151402
mean anomaly at epoch: 179.6902°
orbit number at epoch: 68640

The dashed part of the orbit path shows where the satellite is in the earth's shadow,  

Developed and maintained by Chris Peat, Heavens-Above GmbH. Please read the updated FAQ before sending e-mail. Imprint. DLR